Погода в Зеленом

Россия / Республика Бурятия     51°51′08″N   107°41′13″E
темп.,
°C
ветер,
м/с
пор.,
м/с
влажн.,
%
обл.,
%
осадки,
мм/ч
давл.,
гПа
погр.,
м
21 апреля, ср
ср2123:00+1сз136385 0.0 1009148
02:00−1зсз227283 0.0 101073
05:00−2зсз238746 0.0 101281
08:000сз3671100 0.0 1014749
11:00+2сз685499 0.0 10161052
14:00+2сз795398 0.0 10171350
17:00+2ссз684471 0.0 10191296
20:00−1с31045100 0.0 10211072
22 апреля, чт
чт2223:00−1с3944100 0.2 10231127
02:00−2сз4855100 0.4 10251091
05:00−5с127895 0.4 1027118
08:00−2ссз3553100 0.4 1028803
11:00+1ссз343196 0.0 10281299
14:00+3ссз452998 0.0 10261568
17:00−1ссз5847100 0.5 1031734
20:00−3ссз2541100 0.6 1035481
23 апреля, пт
пт2323:00−4с1350100 0.0 1037120
02:00−5ссз1263100 0.0 104060
05:00−5с1166100 0.0 104244
08:00−3ссз2350100 0.0 1043403
11:00+2с2331100 0.0 1041991
14:00+6с2327100 0.0 10391640
17:00+6ссз3328100 0.0 10381606
20:00+1сз2353100 0.0 1041133
24 апреля, сб
сб2423:000ссз1258100 0.0 104283
02:00−2с1162100 0.0 104134
05:00−3св116190 0.0 104124
08:000св2351100 0.0 1039263
11:00+7всв343099 0.0 1035860
14:00+12в352799 0.0 10291578
17:00+14в3429100 0.0 10251756
20:00+9в2249100 0.1 102525
25 апреля, вс
вс2523:00+6всв115896 0.0 102413
02:00+4св115794 0.0 102212
05:00+4всв2250100 0.0 102024
08:00+7всв233578 0.0 1018296
11:00+8св2339100 0.0 1015170
14:00+6з2352100 0.0 1014143
17:00+1зсз2395100 0.5 1017199
20:00+1з1585100 1.4 1018506